レモン彗星

C/2025 A6 ( Lemmon )

English version
Home page
Updated on May 2, 2025

---------------------------------------------------------------------

・ プロフィール

発見日 2025年1月3日
発見光度 21.6等
発見者 D. C. Fuls (Mt. Lemmon survey)

・ 写真集

・ 軌道要素

Epoch 2025 May 5.0 TT = JDT 2460800.5
T 2025 Nov. 8.52183 TT                                  Pike
q   0.5298408            (2000.0)            P               Q
z  +0.0079695      Peri.  132.96341     +0.77197361     -0.29450403
 +/-0.0000322      Node   108.09595     -0.59889439     -0.63397513
e   0.9957774      Incl.  143.65627     +0.21303111     -0.71508245
From 106 observations 2024 Nov. 12-2025 Mar. 27, mean residual 0".3.

・ 星図

・ 光度変化

        m1 = 12.0 + 5 logΔ + 10.0 log r

---------------------------------------------------------------------

軌道要素はM.P.E.C. 2025-G119に掲載されたものです。
星図はステラナビゲータ Ver.11 (アストロアーツ) で作成したものです。
光度グラフはComet for Windowsで作成したものです。

---------------------------------------------------------------------

Copyright(C) Seiichi Yoshida (comet@aerith.net). All rights reserved.